| time (UTC) | temp C | wind direction | speed KPH | gust KPH | rain 1hr cm | rain 24hr cm | rain mn cm | humidity % | barometer mb |
| 20260906102807 | 21 | 58 | 16.1 | 25.7 | 0.00 | 0.00 | 0.00 | 86 | 1011.4 |
| 20260906100306 | 21 | 60 | 16.1 | 27.4 | 0.00 | 0.00 | 0.00 | 85 | 1011.2 |
| 20260906095807 | 21 | 54 | 17.7 | 27.4 | 0.00 | 0.00 | 0.00 | 85 | 1011.1 |
| 20260906094806 | 21 | 30 | 11.3 | 22.5 | 0.00 | 0.00 | 0.00 | 85 | 1010.9 |
| 20260906094306 | 21 | 39 | 16.1 | 24.1 | 0.00 | 0.00 | 0.00 | 87 | 1011.0 |
| 20260906091807 | 21 | 24 | 20.9 | 29.0 | 0.00 | 0.00 | 0.00 | 86 | 1010.5 |
| 20260906091306 | 21 | 15 | 17.7 | 24.1 | 0.00 | 0.00 | 0.00 | 86 | 1010.5 |
| 20260906090806 | 21 | 2 | 16.1 | 22.5 | 0.00 | 0.00 | 0.00 | 86 | 1010.5 |
| 20260906090306 | 21 | 15 | 16.1 | 22.5 | 0.00 | 0.00 | 0.00 | 86 | 1010.5 |
| 20260906084807 | 21 | 14 | 14.5 | 22.5 | 0.00 | 0.00 | 0.00 | 86 | 1010.3 |
| 20260906082807 | 21 | 351 | 16.1 | 20.9 | 0.00 | 0.00 | 0.00 | 85 | 1010.3 |
| 20260906082306 | 21 | 357 | 12.9 | 19.3 | 0.00 | 0.00 | 0.00 | 85 | 1010.3 |
| 20260906081307 | 21 | 31 | 11.3 | 19.3 | 0.00 | 0.00 | 0.00 | 84 | 1010.2 |
| 20260906080807 | 21 | 359 | 12.9 | 19.3 | 0.00 | 0.00 | 0.00 | 85 | 1010.1 |
| 20260906080307 | 21 | 0 | 11.3 | 16.1 | 0.00 | 0.00 | 0.00 | 85 | 1010.0 |
| 20260906075806 | 21 | 0 | 11.3 | 16.1 | 0.00 | 0.00 | 0.00 | 85 | 1010.0 |
| 20260906075306 | 21 | 7 | 11.3 | 19.3 | 0.00 | 0.00 | 0.00 | 84 | 1010.1 |
| 20260906074807 | 21 | 1 | 11.3 | 19.3 | 0.00 | 0.00 | 0.00 | 84 | 1010.1 |
| 20260906073807 | 21 | 349 | 9.7 | 19.3 | 0.00 | 0.00 | 0.00 | 84 | 1010.2 |
| 20260906073306 | 21 | 348 | 14.5 | 19.3 | 0.00 | 0.00 | 0.00 | 83 | 1010.2 |
| 20260906072306 | 21 | 7 | 12.9 | 19.3 | 0.00 | 0.00 | 0.00 | 83 | 1010.0 |
| 20260906071806 | 22 | 347 | 9.7 | 14.5 | 0.00 | 0.00 | 0.00 | 83 | 1010.0 |
| 20260906071307 | 22 | 6 | 8.0 | 14.5 | 0.00 | 0.00 | 0.00 | 83 | 1010.0 |
| 20260906070806 | 22 | 4 | 8.0 | 12.9 | 0.00 | 0.00 | 0.00 | 83 | 1010.0 |
| 20260906070306 | 22 | 358 | 9.7 | 14.5 | 0.00 | 0.00 | 0.00 | 83 | 1010.0 |
| 20260906065806 | 22 | 346 | 8.0 | 12.9 | 0.00 | 0.00 | 0.00 | 83 | 1010.0 |
| 20260906062806 | 22 | 352 | 9.7 | 16.1 | 0.00 | 0.00 | 0.00 | 82 | 1010.2 |
| 20260906062306 | 22 | 35 | 9.7 | 14.5 | 0.00 | 0.00 | 0.00 | 81 | 1010.2 |
| 20260906061806 | 22 | 22 | 8.0 | 16.1 | 0.00 | 0.00 | 0.00 | 82 | 1010.2 |
| 20260906061306 | 22 | 28 | 9.7 | 16.1 | 0.00 | 0.00 | 0.00 | 81 | 1010.2 |
| 20260906060306 | 22 | 3 | 12.9 | 19.3 | 0.00 | 0.05 | 0.00 | 80 | 1010.4 |
| 20260906055807 | 22 | 354 | 14.5 | 19.3 | 0.00 | 0.18 | 0.00 | 81 | 1010.4 |
| 20260906054807 | 22 | 320 | 8.0 | 14.5 | 0.00 | 0.20 | 0.00 | 82 | 1010.4 |
| 20260906052309 | 22 | 330 | 8.0 | 9.7 | 0.00 | 0.20 | 0.00 | 82 | 1010.7 |
| 20260906051806 | 22 | 313 | 4.8 | 8.0 | 0.00 | 0.20 | 0.00 | 82 | 1010.7 |
| 20260906051306 | 22 | 326 | 4.8 | 14.5 | 0.00 | 0.20 | 0.00 | 82 | 1010.7 |
| 20260906050806 | 22 | 314 | 3.2 | 11.3 | 0.00 | 0.20 | 0.00 | 82 | 1010.7 |
| 20260906045306 | 22 | 292 | 8.0 | 12.9 | 0.00 | 0.20 | 0.00 | 81 | 1010.7 |
| 20260906044806 | 22 | 300 | 4.8 | 9.7 | 0.00 | 0.20 | 0.00 | 81 | 1010.7 |
| 20260906044306 | 22 | 285 | 3.2 | 9.7 | 0.00 | 0.20 | 0.00 | 81 | 1010.8 |
| 20260906043806 | 22 | 280 | 3.2 | 9.7 | 0.00 | 0.20 | 0.00 | 81 | 1010.8 |
| 20260906043306 | 22 | 284 | 4.8 | 9.7 | 0.00 | 0.20 | 0.00 | 81 | 1010.8 |
| 20260906040832 | 22 | 281 | 4.8 | 9.7 | 0.00 | 0.20 | 0.00 | 80 | 1010.9 |
| 20260906035806 | 22 | 289 | 3.2 | 8.0 | 0.00 | 0.20 | 0.20 | 80 | 1010.9 |
| 20260906035306 | 22 | 269 | 3.2 | 8.0 | 0.00 | 0.20 | 0.20 | 80 | 1011.0 |
| 20260906034306 | 22 | 294 | 3.2 | 8.0 | 0.00 | 0.20 | 0.20 | 79 | 1010.9 |
| 20260906033806 | 22 | 280 | 4.8 | 9.7 | 0.00 | 0.20 | 0.20 | 78 | 1010.8 |
| 20260906032806 | 22 | 290 | 3.2 | 8.0 | 0.00 | 0.20 | 0.20 | 78 | 1010.8 |
| 20260906031806 | 22 | 280 | 3.2 | 8.0 | 0.00 | 0.20 | 0.20 | 79 | 1010.7 |
| 20260906030806 | 22 | 279 | 1.6 | 4.8 | 0.00 | 0.20 | 0.20 | 79 | 1010.8 |
| 20260906030306 | 22 | 284 | 1.6 | 4.8 | 0.00 | 0.20 | 0.20 | 79 | 1010.8 |
| 20260906025806 | 22 | 275 | 1.6 | 4.8 | 0.00 | 0.20 | 0.20 | 79 | 1010.8 |
| 20260906025306 | 22 | 274 | 1.6 | 3.2 | 0.00 | 0.20 | 0.20 | 79 | 1010.8 |
| 20260906024806 | 22 | 273 | 0.0 | 4.8 | 0.00 | 0.20 | 0.20 | 79 | 1010.7 |
| 20260906024306 | 22 | 268 | 1.6 | 4.8 | 0.00 | 0.20 | 0.20 | 78 | 1010.7 |
| 20260906023806 | 23 | 282 | 1.6 | 4.8 | 0.00 | 0.20 | 0.20 | 78 | 1010.6 |
| 20260906021806 | 23 | 282 | 1.6 | 4.8 | 0.00 | 0.20 | 0.20 | 76 | 1010.6 |
| 20260906021306 | 23 | 282 | 0.0 | 4.8 | 0.00 | 0.20 | 0.20 | 76 | 1010.6 |
| 20260906020807 | 23 | 282 | 1.6 | 4.8 | 0.00 | 0.20 | 0.20 | 77 | 1010.6 |
| 20260906015806 | 23 | 279 | 0.0 | 4.8 | 0.00 | 0.20 | 0.20 | 75 | 1010.5 |
| 20260906015306 | 23 | 295 | 0.0 | 4.8 | 0.00 | 0.20 | 0.20 | 75 | 1010.4 |
| 20260906014806 | 23 | 297 | 0.0 | 3.2 | 0.00 | 0.20 | 0.20 | 74 | 1010.4 |
| 20260906014306 | 23 | 297 | 0.0 | 0.0 | 0.00 | 0.20 | 0.20 | 74 | 1010.3 |
| 20260906013806 | 23 | 297 | 0.0 | 4.8 | 0.00 | 0.20 | 0.20 | 74 | 1010.3 |
| 20260906012808 | 23 | 127 | 0.0 | 0.0 | 0.00 | 0.20 | 0.20 | 71 | 1010.2 |
| 20260906011306 | 23 | 127 | 0.0 | 0.0 | 0.00 | 0.20 | 0.20 | 71 | 1010.2 |
| 20260906005306 | 23 | 127 | 0.0 | 1.6 | 0.00 | 0.20 | 0.20 | 71 | 1010.0 |
| 20260906004806 | 23 | 127 | 0.0 | 0.0 | 0.00 | 0.20 | 0.20 | 70 | 1010.1 |
| 20260906004306 | 23 | 127 | 0.0 | 0.0 | 0.00 | 0.20 | 0.20 | 70 | 1010.0 |
| 20260906000306 | 23 | 127 | 0.0 | 0.0 | 0.00 | 0.20 | 0.20 | 70 | 1009.5 |
| 20260905235307 | 23 | 127 | 0.0 | 0.0 | 0.00 | 0.20 | 0.20 | 70 | 1009.4 |
| 20260905234805 | 23 | 127 | 0.0 | 1.6 | 0.00 | 0.20 | 0.20 | 69 | 1009.4 |
| 20260905234305 | 23 | 127 | 1.6 | 1.6 | 0.00 | 0.20 | 0.20 | 70 | 1009.3 |
| 20260905233306 | 23 | 127 | 0.0 | 0.0 | 0.00 | 0.20 | 0.20 | 70 | 1009.3 |
| 20260905232806 | 24 | 127 | 0.0 | 0.0 | 0.00 | 0.20 | 0.20 | 69 | 1009.3 |
| 20260905232306 | 24 | 127 | 0.0 | 0.0 | 0.00 | 0.20 | 0.20 | 69 | 1009.3 |
| 20260905231306 | 24 | 127 | 0.0 | 1.6 | 0.00 | 0.20 | 0.20 | 69 | 1009.3 |
| 20260905225807 | 25 | 127 | 3.2 | 4.8 | 0.00 | 0.20 | 0.20 | 67 | 1009.5 |
| 20260905224805 | 25 | 128 | 1.6 | 4.8 | 0.00 | 0.20 | 0.20 | 67 | 1009.3 |
| 20260905223806 | 25 | 169 | 1.6 | 4.8 | 0.00 | 0.20 | 0.20 | 65 | 1009.3 |
| 20260905223306 | 25 | 169 | 3.2 | 4.8 | 0.00 | 0.20 | 0.20 | 64 | 1009.3 |
| 20260905222806 | 25 | 169 | 3.2 | 4.8 | 0.00 | 0.20 | 0.20 | 64 | 1009.3 |
| 20260905214806 | 25 | 150 | 3.2 | 8.0 | 0.00 | 0.20 | 0.20 | 65 | 1009.2 |
| 20260905214306 | 25 | 128 | 3.2 | 8.0 | 0.00 | 0.20 | 0.20 | 64 | 1009.2 |
| 20260905211806 | 26 | 93 | 6.4 | 11.3 | 0.00 | 0.20 | 0.20 | 62 | 1009.0 |
| 20260905210806 | 26 | 109 | 4.8 | 9.7 | 0.00 | 0.20 | 0.20 | 63 | 1009.0 |
| 20260905210306 | 25 | 99 | 4.8 | 11.3 | 0.00 | 0.20 | 0.20 | 63 | 1009.0 |
| 20260905203306 | 25 | 77 | 8.0 | 11.3 | 0.00 | 0.20 | 0.20 | 63 | 1008.9 |
| 20260905202306 | 25 | 76 | 8.0 | 11.3 | 0.00 | 0.20 | 0.20 | 64 | 1009.1 |
| 20260905200805 | 26 | 93 | 8.0 | 16.1 | 0.00 | 0.20 | 0.20 | 64 | 1009.1 |
| 20260905200306 | 26 | 100 | 9.7 | 12.9 | 0.00 | 0.20 | 0.20 | 64 | 1009.1 |
| 20260905195307 | 26 | 110 | 4.8 | 9.7 | 0.00 | 0.20 | 0.20 | 65 | 1009.1 |
| 20260905194806 | 26 | 130 | 4.8 | 11.3 | 0.00 | 0.20 | 0.20 | 64 | 1009.0 |
| 20260905192306 | 26 | 137 | 4.8 | 14.5 | 0.00 | 0.20 | 0.20 | 64 | 1009.3 |
| 20260905191806 | 26 | 104 | 9.7 | 14.5 | 0.00 | 0.20 | 0.20 | 61 | 1009.3 |
| 20260905185306 | 26 | 90 | 3.2 | 9.7 | 0.00 | 0.20 | 0.20 | 61 | 1009.3 |
| 20260905183306 | 26 | 89 | 4.8 | 11.3 | 0.00 | 0.20 | 0.20 | 63 | 1009.5 |
| 20260905182306 | 26 | 75 | 9.7 | 11.3 | 0.00 | 0.20 | 0.20 | 63 | 1009.4 |
| 20260905175806 | 26 | 88 | 8.0 | 16.1 | 0.00 | 0.20 | 0.20 | 66 | 1009.5 |
| 20260905175306 | 26 | 90 | 9.7 | 16.1 | 0.00 | 0.20 | 0.20 | 65 | 1009.5 |
| 20260905174806 | 26 | 94 | 9.7 | 16.1 | 0.00 | 0.20 | 0.20 | 64 | 1009.3 |
| 20260905174305 | 26 | 94 | 8.0 | 11.3 | 0.00 | 0.20 | 0.20 | 64 | 1009.4 |
| 20260905172805 | 26 | 107 | 9.7 | 16.1 | 0.00 | 0.20 | 0.20 | 65 | 1009.4 |
| 20260905171305 | 27 | 79 | 8.0 | 12.9 | 0.00 | 0.20 | 0.20 | 64 | 1009.4 |
| 20260905170306 | 27 | 86 | 8.0 | 14.5 | 0.00 | 0.20 | 0.20 | 63 | 1009.4 |
| 20260905165307 | 27 | 107 | 4.8 | 12.9 | 0.00 | 0.20 | 0.20 | 64 | 1009.5 |
| 20260905164806 | 27 | 137 | 6.4 | 11.3 | 0.00 | 0.20 | 0.20 | 63 | 1009.5 |
| 20260905164305 | 27 | 97 | 8.0 | 12.9 | 0.00 | 0.20 | 0.20 | 64 | 1009.5 |
| 20260905162806 | 27 | 132 | 4.8 | 9.7 | 0.00 | 0.20 | 0.20 | 62 | 1009.6 |
| 20260905161306 | 27 | 98 | 8.0 | 14.5 | 0.00 | 0.20 | 0.20 | 63 | 1009.6 |
| 20260905160305 | 27 | 350 | 1.6 | 4.8 | 0.00 | 0.20 | 0.20 | 57 | 1009.8 |
| 20260905155306 | 26 | 350 | 3.2 | 4.8 | 0.00 | 0.20 | 0.20 | 62 | 1009.8 |
| 20260905154805 | 26 | 345 | 4.8 | 4.8 | 0.00 | 0.20 | 0.20 | 62 | 1009.9 |
| 20260905153305 | 25 | 350 | 4.8 | 8.0 | 0.00 | 0.20 | 0.20 | 65 | 1009.9 |
| 20260905151305 | 25 | 0 | 9.7 | 16.1 | 0.00 | 0.20 | 0.20 | 67 | 1009.8 |
| 20260905150805 | 25 | 356 | 9.7 | 14.5 | 0.00 | 0.20 | 0.20 | 67 | 1009.7 |
| 20260905150305 | 25 | 4 | 9.7 | 14.5 | 0.00 | 0.20 | 0.20 | 69 | 1009.8 |
| 20260905145307 | 25 | 22 | 11.3 | 16.1 | 0.00 | 0.20 | 0.20 | 68 | 1009.8 |
| 20260905143806 | 25 | 11 | 8.0 | 11.3 | 0.00 | 0.20 | 0.20 | 67 | 1009.6 |
| 20260905143306 | 25 | 31 | 8.0 | 16.1 | 0.00 | 0.20 | 0.20 | 68 | 1009.5 |
| 20260905142805 | 25 | 17 | 11.3 | 19.3 | 0.00 | 0.20 | 0.20 | 67 | 1009.4 |
| 20260905141805 | 25 | 18 | 9.7 | 16.1 | 0.00 | 0.20 | 0.20 | 69 | 1009.5 |
| 20260905140805 | 25 | 19 | 14.5 | 19.3 | 0.00 | 0.20 | 0.20 | 69 | 1009.4 |
| 20260905140306 | 24 | 9 | 11.3 | 19.3 | 0.00 | 0.20 | 0.20 | 70 | 1009.4 |
| 20260905135805 | 23 | 5 | 11.3 | 24.1 | 0.00 | 0.20 | 0.20 | 72 | 1009.4 |
| 20260905135307 | 23 | 22 | 12.9 | 20.9 | 0.00 | 0.20 | 0.20 | 73 | 1009.3 |
| 20260905133305 | 23 | 25 | 14.5 | 22.5 | 0.00 | 0.20 | 0.20 | 74 | 1009.4 |
| 20260905132805 | 23 | 22 | 16.1 | 22.5 | 0.00 | 0.20 | 0.20 | 74 | 1009.4 |
| 20260905132306 | 23 | 26 | 16.1 | 20.9 | 0.00 | 0.20 | 0.20 | 74 | 1009.4 |
| 20260905131305 | 23 | 25 | 16.1 | 22.5 | 0.00 | 0.20 | 0.20 | 74 | 1009.5 |
| 20260905125805 | 23 | 33 | 16.1 | 24.1 | 0.00 | 0.20 | 0.20 | 74 | 1009.3 |
| 20260905125306 | 23 | 20 | 16.1 | 24.1 | 0.00 | 0.20 | 0.20 | 74 | 1009.4 |
| 20260905124305 | 23 | 17 | 19.3 | 25.7 | 0.00 | 0.20 | 0.20 | 74 | 1009.4 |
| 20260905122807 | 23 | 14 | 16.1 | 24.1 | 0.00 | 0.20 | 0.20 | 75 | 1009.7 |
| 20260905121806 | 23 | 1 | 17.7 | 24.1 | 0.00 | 0.20 | 0.20 | 74 | 1009.6 |
| 20260905121305 | 23 | 9 | 20.9 | 29.0 | 0.00 | 0.20 | 0.20 | 74 | 1009.7 |
| 20260905120306 | 23 | 0 | 16.1 | 22.5 | 0.00 | 0.20 | 0.20 | 74 | 1009.6 |
| 20260905115306 | 23 | 3 | 16.1 | 25.7 | 0.00 | 0.20 | 0.20 | 74 | 1009.4 |
| 20260905114806 | 23 | 358 | 17.7 | 24.1 | 0.00 | 0.20 | 0.20 | 72 | 1009.5 |
| 20260905113805 | 23 | 22 | 16.1 | 25.7 | 0.00 | 0.20 | 0.20 | 71 | 1009.4 |
| 20260905113305 | 23 | 21 | 14.5 | 22.5 | 0.00 | 0.20 | 0.20 | 72 | 1009.2 |
| 20260905112306 | 23 | 359 | 16.1 | 25.7 | 0.00 | 0.20 | 0.20 | 72 | 1009.2 |
| 20260905111305 | 23 | 11 | 19.3 | 24.1 | 0.00 | 0.20 | 0.20 | 74 | 1009.2 |
| 20260905110805 | 23 | 352 | 20.9 | 24.1 | 0.00 | 0.20 | 0.20 | 75 | 1009.2 |
| 20260905110305 | 23 | 354 | 17.7 | 24.1 | 0.00 | 0.20 | 0.20 | 74 | 1009.1 |
| 20260905105306 | 23 | 354 | 14.5 | 20.9 | 0.00 | 0.20 | 0.20 | 74 | 1008.9 |
| 20260905104805 | 23 | 356 | 14.5 | 20.9 | 0.00 | 0.20 | 0.20 | 74 | 1008.9 |